Main page
METAR-TAF:

METAR-TAF

Airports :

Montes Claros Airport

Montes Claros, Minas Gerais, Brazil

latitude: 16-43S, longitude: 043-52W, elevation: 646 m

Current weather observation

The report was made 57 minutes ago, at 23:00 UTC
Wind 3 kt from the South/Southwest
Temperature 26°C
Humidity 51%
Pressure 1016 hPa
Visibility 10 km or more
no clouds below 1500 m and no cumulonimbus

METAR: SBMK 222300Z 21003KT CAVOK 26/15 Q1016

Time: 20:57 (23:57 UTC)


TAF: missing

Weather observations and forecasts of more than 4000 airports (METAR and TAF reports).

The available stations are represented by yellow and red dots on the map.

Hover mouse over dot to see the name of the station.

Then click to see weather observations and forecasts.

To change the map : click on the green buttons with a black cross to zoom in, on the green button with a dash to zoom out, or on the green arrows for adjacent maps.


METAR-TAF: